Theta_e
329 331 330 327 325 327 328 330 331 330 338 350 353 353 353 350 348 347 348 347 344 345 345 348 352 351 350 348 348 349 349 348 347 342 342 344 344 345 347 351 351 351 351 352
330 330 328 328 328 328 327 327 328 330 340 347 350 352 352 350 350 350 348 347 344 339 339 339 343 352 351 351 349 348 350 349 348 348 349 348 347 343 348 349 350 352 352 354
335 329 330 331 331 330 329 328 329 333 342 341 348 350 352 350 347 347 346 344 342 340 337 335 333 338 344 349 349 350 348 348 347 346 346 346 346 344 346 346 347 349 350 350
336 335 332 332 330 331 333 334 333 337 340 342 344 345 347 346 347 346 343 341 340 336 331 328 328 331 334 339 340 340 339 340 341 340 340 340 342 340 338 341 345 345 346 342
335 336 333 332 331 331 331 333 333 337 338 341 342 344 345 343 343 343 340 339 338 333 329 324 325 326 326 328 329 329 331 330 333 335 336 336 337 341 340 341 343 344 343 339
331 335 336 333 327 327 327 334 332 334 338 341 341 345 346 341 340 340 338 336 334 329 324 322 320 323 323 320 321 321 321 322 325 324 326 329 332 333 334 337 340 340 336 334
328 327 334 330 326 325 328 334 333 333 335 338 342 343 340 339 337 336 335 334 330 326 322 319 318 317 316 315 314 314 314 315 315 318 319 321 322 321 327 330 335 335 334 330
328 333 331 326 324 327 332 329 331 333 335 336 336 336 337 336 335 334 333 330 330 328 325 320 318 316 314 314 313 311 312 312 312 313 315 318 320 321 322 324 328 330 330 328
327 334 329 327 330 328 328 329 329 330 332 334 333 335 335 335 334 332 331 329 326 324 322 320 321 321 315 312 311 310 310 310 311 313 314 316 318 318 318 319 321 323 322 322
327 326 325 324 325 325 325 325 325 327 329 330 332 333 334 334 333 331 329 328 326 326 324 322 319 318 317 317 316 315 315 315 312 312 313 314 314 316 316 316 317 317 317 317
326 326 326 325 324 324 323 322 322 324 327 329 330 331 332 332 332 330 329 327 326 324 324 322 321 320 318 316 315 315 315 314 314 314 312 315 314 312 312 311 310 310 315 315
324 324 326 324 324 323 323 322 322 322 324 327 329 330 330 331 330 329 328 326 325 324 324 322 321 319 317 315 315 315 314 314 313 313 313 313 312 308 307 304 303 306 305 308
324 324 324 324 324 324 322 323 323 322 323 323 324 327 328 329 328 328 327 326 325 325 323 322 321 319 316 315 314 314 313 312 312 309 312 311 311 311 309 300 298 298 298 299
324 325 324 324 324 323 322 322 321 321 321 322 322 322 323 326 328 328 327 326 325 324 323 323 321 318 317 315 313 313 312 309 311 309 310 310 310 310 311 309 309 306 298 300
325 324 324 324 323 324 322 322 322 321 321 321 321 321 322 323 323 325 325 325 325 324 323 323 321 319 317 315 313 312 311 309 307 309 308 307 308 308 308 308 309 309 306 302
324 323 323 324 324 323 322 321 321 320 319 319 318 319 320 321 321 322 322 323 324 324 323 323 321 319 317 315 313 311 310 308 307 307 307 306 306 307 307 307 307 308 307 307
325 325 323 324 324 323 321 320 318 318 318 317 318 318 318 318 318 319 320 321 321 323 323 323 322 320 318 315 313 310 309 307 305 306 306 306 306 306 306 306 306 306 306 303
324 324 323 323 322 321 320 318 318 318 318 318 318 317 316 316 317 317 318 318 319 320 321 322 321 320 318 316 313 310 309 308 304 305 306 306 306 306 306 306 306 305 305 302
323 323 322 322 320 320 319 319 318 318 317 317 316 316 315 316 315 315 315 316 317 318 319 319 320 319 318 317 313 311 309 308 306 306 307 306 306 306 306 306 306 306 305 304
322 322 320 319 319 319 319 319 317 317 317 316 315 315 314 314 314 314 314 314 315 315 317 317 317 318 318 317 313 312 310 309 308 307 307 307 307 306 307 306 307 307 306 305
321 320 321 321 321 320 319 317 316 315 314 313 312 312 312 312 312 311 311 312 311 312 315 316 316 316 316 316 314 311 310 310 310 309 309 307 307 307 308 308 307 305 305 306
321 321 321 320 319 317 315 313 312 311 311 311 312 311 311 311 311 311 311 311 311 311 314 315 314 314 314 314 313 312 309 309 309 309 309 308 308 308 308 308 308 307 306 306
320 320 318 317 316 314 312 310 310 310 311 311 311 310 310 310 309 309 309 309 310 310 312 312 312 313 312 312 312 312 311 309 308 308 308 309 308 308 308 307 307 307 306 306
318 317 315 314 312 311 311 310 310 310 310 309 309 309 309 309 309 308 309 307 308 309 309 312 311 311 310 310 311 311 309 308 307 306 307 307 307 307 307 307 306 306 306 305
315 313 312 312 311 311 311 310 309 309 309 309 308 308 308 309 308 308 309 310 310 309 309 310 310 310 310 310 310 309 307 306 306 305 304 305 305 305 305 306 306 305 305 305
313 312 312 311 310 310 309 308 309 308 307 307 307 307 306 307 306 308 310 309 310 310 311 311 310 310 310 310 309 307 306 306 305 303 303 304 304 303 303 303 304 305 304 304
312 311 311 310 309 309 309 308 308 308 307 307 306 306 306 305 307 306 307 308 309 308 307 307 307 307 308 308 308 307 306 305 305 303 303 303 302 301 303 304 306 305 305 305
Wind_Speed
6 15 22 19 21 10 15 16 12 3 6 16 15 14 13 14 10 11 11 10 8 5 4 2 6 14 17 18 16 14 14 14 14 14 14 15 16 15 12 11 11 14 13 12
12 9 10 13 16 21 18 17 18 2 9 4 15 15 13 12 13 11 10 11 11 7 7 4 3 5 15 18 19 18 15 13 10 10 10 10 13 10 10 8 7 6 9 9
15 9 10 9 10 10 11 8 7 7 15 10 10 11 12 11 8 9 8 9 9 8 7 6 5 5 9 10 13 14 11 10 11 10 6 6 6 6 9 5 5 4 4 4
2 12 13 9 11 8 7 8 5 2 8 5 8 10 9 10 9 9 9 9 9 11 10 8 9 10 11 13 13 14 13 14 14 12 9 6 3 3 3 4 3 3 4 6
4 2 7 7 3 5 2 13 5 6 3 9 9 11 7 5 9 10 10 8 11 11 11 11 13 13 14 14 16 18 13 11 10 8 6 4 3 3 3 6 5 5 4 6
9 8 5 4 6 3 3 6 6 5 3 7 7 8 10 8 10 11 15 15 13 15 14 14 12 13 16 17 16 14 15 12 8 7 7 5 3 2 0 1 2 3 6 4
7 5 4 12 4 1 8 4 4 2 6 5 4 5 9 10 11 12 15 18 17 15 15 15 14 14 16 14 16 13 12 10 9 8 5 4 3 2 4 1 4 5 4 3
4 5 5 2 4 3 6 5 4 1 4 6 6 7 10 11 11 13 15 14 13 15 16 15 13 14 15 13 9 10 8 8 8 7 5 3 4 3 2 2 2 3 3 5
4 6 6 6 9 5 4 5 4 3 5 4 5 8 10 11 11 13 14 14 15 16 15 11 9 9 11 11 10 8 7 6 5 4 3 2 3 3 2 3 4 6 6 6
1 8 3 5 5 4 4 5 4 4 2 5 6 8 10 11 11 13 14 15 15 14 14 12 10 8 8 9 8 6 5 3 2 4 3 1 2 2 5 4 6 7 6 6
6 4 3 5 5 5 5 1 2 3 3 1 5 6 9 9 11 14 15 14 14 14 13 11 11 10 9 8 9 8 6 6 5 6 6 5 2 3 3 1 1 2 2 4
3 2 7 2 10 5 5 4 2 3 3 3 2 4 5 8 11 12 13 14 13 12 12 13 11 10 8 7 7 6 6 7 7 7 7 8 6 4 3 1 3 5 4 3
3 3 6 1 4 6 6 4 5 2 3 3 2 2 6 7 10 9 12 13 13 13 12 13 12 11 10 9 8 8 7 4 5 7 7 7 8 9 6 1 2 2 2 4
4 3 4 5 5 5 5 5 3 2 3 2 2 2 3 5 13 9 11 13 12 11 12 13 13 13 12 11 10 8 8 7 7 7 7 7 8 9 9 9 9 6 3 3
7 8 6 7 5 6 6 6 5 3 2 2 3 4 5 5 7 11 11 13 15 16 16 16 17 16 15 13 12 11 10 8 10 8 7 6 7 7 8 6 5 5 7 4
8 8 8 8 8 8 7 5 4 2 1 3 4 4 5 6 8 11 11 12 14 17 18 19 18 16 16 16 15 13 12 9 11 9 7 9 8 8 8 6 6 6 5 3
8 9 8 9 9 8 4 1 2 0 2 0 1 2 4 6 8 11 13 14 15 18 19 20 21 19 19 19 18 15 14 12 14 11 10 11 10 9 9 8 8 7 7 5
5 4 8 7 7 7 5 3 3 2 1 3 5 6 7 8 9 10 11 13 15 16 18 19 18 21 23 22 21 18 17 16 17 15 13 12 11 10 9 10 8 7 7 5
7 7 9 9 9 6 6 5 3 1 2 5 6 9 11 11 11 13 13 12 16 13 16 18 20 23 25 25 24 23 20 19 18 18 16 14 13 12 12 11 10 8 7 6
8 9 9 8 6 6 5 2 2 3 3 6 9 10 11 13 13 11 12 17 20 18 13 12 15 20 25 25 29 26 23 22 21 20 19 18 17 16 14 12 9 10 10 9
10 11 11 9 6 6 5 2 0 1 3 5 7 9 11 13 15 17 19 20 21 18 17 14 13 15 21 23 25 33 20 22 23 22 21 21 19 18 16 15 14 13 12 10
9 10 10 10 9 6 4 2 1 1 2 4 6 8 10 13 14 16 16 19 21 17 9 12 15 16 15 20 20 24 29 21 17 22 24 22 21 19 17 15 14 12 11 10
11 11 11 9 6 5 4 2 3 2 2 4 4 7 9 10 11 14 15 17 15 14 14 19 17 16 17 17 18 20 23 31 27 21 13 20 21 20 19 17 15 14 11 10
11 9 8 6 5 5 5 3 5 3 1 2 3 4 7 9 12 13 14 14 16 17 17 15 12 16 14 14 16 18 21 30 31 27 27 19 14 15 17 15 13 12 11 9
11 10 9 7 6 8 6 6 6 7 4 8 4 7 7 6 9 16 13 13 13 13 14 12 13 15 11 14 15 15 21 26 28 30 24 21 16 9 3 5 6 9 12 10
13 12 11 8 9 8 9 7 8 1 4 6 4 7 10 4 7 9 10 8 10 9 7 6 3 7 11 15 20 22 21 22 24 28 27 24 16 10 7 9 15 19 17 13
13 6 9 10 10 9 5 1 5 4 9 5 7 6 8 4 4 4 6 8 11 10 8 7 5 1 3 6 10 17 19 20 23 28 31 32 28 19 24 25 22 17 12 11
Wind_Direction
204 257 259 185 217 231 238 258 249 309 151 148 149 144 146 145 153 158 155 157 141 143 97 158 184 191 196 197 196 193 200 212 223 224 243 248 234 222 228 242 234 240 243 243
180 238 279 177 196 207 218 235 247 19 146 100 108 119 136 145 163 170 160 141 150 132 134 130 182 204 202 193 197 199 206 199 204 212 230 226 225 217 201 201 212 229 238 240
220 189 200 211 207 220 228 218 265 292 86 127 125 130 134 138 155 144 154 138 143 139 130 102 82 131 120 159 187 186 184 176 168 156 161 143 152 182 148 172 175 197 183 176
48 340 223 66 346 26 92 73 333 61 81 98 115 114 121 133 158 137 138 136 136 128 118 101 102 114 126 148 142 138 135 148 159 150 151 159 181 186 173 124 134 164 171 106
123 261 289 148 143 300 243 131 55 59 85 94 110 110 109 126 129 150 141 136 124 125 117 111 110 116 119 113 111 104 95 111 128 132 139 162 171 211 215 230 219 211 166 117
270 181 204 359 39 349 322 192 80 77 91 125 144 202 134 136 130 123 124 121 116 118 114 108 111 123 119 109 105 102 104 93 91 102 112 109 113 124 195 209 220 185 113 114
264 264 155 260 103 301 226 73 19 327 109 130 108 69 118 124 112 118 111 118 123 116 113 111 114 115 102 106 106 108 108 107 104 98 103 101 81 84 110 83 162 157 154 124
192 283 199 39 179 320 72 95 49 78 95 101 88 120 137 133 133 130 127 132 125 123 121 126 120 118 115 111 114 114 119 110 108 112 107 110 105 102 100 147 130 181 194 225
323 36 76 59 69 88 70 79 49 33 113 117 137 135 142 142 142 145 146 136 138 132 128 125 123 133 128 137 133 128 125 107 98 103 92 101 148 140 185 185 232 221 207 236
29 161 138 118 115 124 63 63 24 22 57 150 148 151 154 154 157 153 152 155 149 146 141 142 147 135 139 140 143 137 123 146 134 113 145 134 239 187 233 204 211 217 223 230
235 125 150 183 185 162 125 112 43 32 25 112 150 166 162 166 167 163 164 167 161 163 159 155 154 151 150 158 157 164 174 181 186 190 197 185 78 75 15 244 251 11 220 284
242 144 195 326 175 187 175 183 126 104 108 65 149 159 171 167 175 176 172 175 174 177 171 166 165 163 163 170 178 188 193 197 203 207 200 214 179 150 197 107 216 239 206 167
241 212 186 162 155 181 205 178 157 168 93 131 108 156 179 176 181 186 185 188 193 192 183 175 177 179 183 183 186 197 218 221 220 234 225 210 235 210 180 149 104 106 130 187
244 204 232 190 200 200 215 156 161 236 158 169 173 189 188 215 145 200 213 210 208 203 197 192 196 197 192 193 194 199 210 220 220 225 232 233 239 239 243 191 204 185 123 122
212 218 249 182 182 155 158 176 187 208 174 199 195 253 227 240 247 198 221 225 213 210 210 209 208 205 197 197 197 201 207 214 214 217 216 229 227 236 239 235 237 168 168 176
198 202 203 161 170 164 184 175 230 209 194 283 302 286 284 272 257 258 252 225 238 220 220 224 219 214 203 200 200 202 206 213 203 202 192 206 217 228 223 221 214 210 208 144
189 188 198 192 170 178 183 143 286 78 89 202 57 341 297 285 286 279 269 264 255 240 241 223 221 217 204 206 207 208 204 198 203 208 201 209 210 221 224 222 220 206 200 154
232 207 196 204 180 171 166 149 146 165 200 13 337 304 298 291 289 292 288 285 277 263 253 237 223 218 203 208 209 212 206 194 198 208 208 207 211 213 216 225 222 214 210 173
211 219 184 177 160 166 161 179 168 64 313 280 291 298 297 297 293 292 293 292 291 280 276 262 231 226 214 208 213 218 207 198 197 206 208 203 203 213 214 216 221 221 227 204
190 161 137 131 139 167 134 37 323 301 339 330 315 308 302 299 309 317 298 291 288 286 285 282 252 227 219 215 208 224 215 207 203 204 203 203 206 209 216 222 229 218 220 225
163 151 140 129 140 133 130 140 167 332 321 304 308 306 303 299 294 290 283 275 274 273 257 255 256 230 220 218 216 218 240 225 216 206 207 208 206 213 211 214 211 219 228 227
154 138 158 157 159 138 136 140 79 327 321 323 321 324 320 308 308 300 288 278 280 280 260 257 250 243 233 224 219 223 235 246 235 228 215 206 211 205 216 213 216 220 223 227
157 159 167 167 167 153 163 156 123 87 63 39 356 1 326 332 323 316 307 296 314 324 290 251 238 226 233 230 232 230 232 234 225 245 263 219 210 213 207 210 215 223 225 226
156 158 162 157 161 179 181 179 128 121 84 268 359 329 309 337 336 331 322 301 292 298 278 272 265 226 216 227 228 230 235 236 229 226 216 247 271 230 216 209 208 225 233 230
165 162 167 172 193 189 169 180 203 202 220 237 277 306 342 346 357 340 324 322 309 295 277 255 246 231 214 227 227 226 234 238 232 221 216 215 225 235 204 197 211 221 239 249
169 181 179 193 204 171 201 178 253 96 312 296 319 335 326 350 348 358 355 355 359 354 357 350 310 235 232 232 229 236 236 232 231 218 207 206 206 234 246 215 220 255 243 256
186 207 161 190 194 186 202 268 285 203 218 299 327 300 297 356 354 341 12 29 49 42 39 43 34 315 264 256 241 227 223 224 221 216 212 209 211 226 225 246 244 237 259 269